SCP
0 0 0 0 0 0 0 0 0 0 0 0 0 0 0 0 1 1 1 2 3 3 3 3 3 3 2 2 1 1 1 1 1 1 1 1 1 0 0 0 0 1 1 1 1 1 0 0 0
0 0 0 0 0 0 0 0 0 0 0 0 0 0 0 0 1 1 1 2 3 3 3 3 3 3 2 2 1 1 1 1 1 1 1 1 1 1 1 0 1 1 1 1 1 1 1 0 0
0 0 0 0 0 0 0 0 0 0 0 0 0 0 0 0 1 1 1 2 3 3 2 3 3 3 3 2 1 1 1 1 1 1 1 1 1 1 1 1 1 1 1 1 1 1 1 1 1
0 0 0 0 0 0 0 0 0 0 0 0 0 0 0 1 1 1 2 2 3 3 3 3 3 4 3 2 2 1 1 1 1 1 1 1 1 1 1 1 1 1 1 1 1 1 1 1 1
0 0 0 0 0 0 0 0 0 0 0 0 0 0 1 2 2 2 2 3 4 3 3 3 3 3 3 3 2 2 1 1 1 1 1 1 1 1 1 1 1 1 1 1 1 1 1 1 1
0 0 0 0 0 0 0 0 0 0 0 0 0 1 1 2 2 2 3 3 4 4 4 3 3 3 3 3 2 2 2 1 1 1 1 1 1 1 1 1 1 1 1 1 1 2 1 1 1
0 0 0 0 0 0 0 0 0 0 0 0 0 1 1 2 3 3 3 4 5 5 4 4 3 3 3 3 3 2 2 2 1 1 1 1 1 1 1 1 1 1 1 1 1 1 1 1 1
0 0 0 0 0 0 0 0 0 0 0 0 0 1 1 3 4 3 4 5 6 6 5 4 3 3 3 3 2 2 2 1 1 1 1 1 1 1 1 1 1 1 1 1 1 1 1 1 1
0 0 0 0 0 0 0 0 0 0 0 0 1 1 2 4 4 4 4 5 5 5 5 4 4 3 3 3 2 2 1 1 1 1 1 1 1 1 1 1 1 1 1 1 1 1 1 1 1
0 0 0 0 0 0 0 0 0 0 0 0 1 2 4 4 4 4 4 4 4 4 4 4 4 4 3 3 2 2 2 1 1 1 1 1 1 1 1 1 1 1 1 1 1 1 1 1 1
0 0 0 0 0 0 0 0 0 0 0 0 1 3 4 4 3 3 3 3 3 3 3 4 4 4 4 3 3 2 2 2 1 1 1 1 1 1 0 1 1 1 1 1 1 1 1 1 1
0 0 0 0 0 0 0 0 0 0 0 0 0 2 4 4 3 2 3 3 3 3 3 4 4 4 4 4 3 3 2 2 1 1 1 1 1 1 1 1 1 1 1 1 1 1 1 1 1
0 0 0 0 0 0 0 0 0 0 0 0 0 1 3 3 3 3 3 3 3 3 3 4 4 4 5 5 4 3 3 2 2 1 1 1 1 1 1 1 1 1 1 1 1 1 1 1 1
0 0 0 0 0 0 0 0 0 0 0 0 0 1 2 3 3 3 3 3 3 3 4 4 4 5 5 5 5 4 3 3 2 2 1 1 1 1 1 1 1 1 1 1 1 2 2 2 2
0 0 0 0 0 0 0 0 0 0 0 0 0 0 1 2 3 3 3 3 4 4 4 4 5 5 6 5 5 5 4 3 3 2 2 2 2 2 1 1 1 1 1 1 1 2 2 2 2
0 0 0 0 0 0 0 0 0 0 0 0 0 0 1 2 3 3 3 3 4 4 4 5 5 5 5 5 5 5 5 4 3 3 2 2 2 2 1 1 1 1 1 1 1 2 3 2 2
0 0 0 0 0 0 0 0 0 0 0 0 0 0 0 1 2 3 3 4 4 4 5 5 5 5 5 5 5 5 4 4 3 3 2 2 2 2 2 1 1 1 1 1 1 2 2 2 2
0 0 0 0 0 0 0 0 0 0 0 0 0 0 0 1 2 3 3 4 4 4 4 5 5 5 5 5 5 4 3 3 3 3 2 2 2 2 2 1 1 1 1 1 2 2 2 2 1
0 0 0 0 0 0 0 0 0 0 0 0 0 0 0 0 1 2 4 5 4 4 4 4 4 4 4 4 4 3 3 3 3 3 2 2 2 2 1 1 1 1 1 1 2 2 2 1 1
0 0 0 0 0 0 0 0 0 0 0 0 0 0 0 0 1 2 4 5 4 4 3 3 4 3 3 3 3 3 2 2 2 2 2 2 2 2 2 1 1 1 1 2 2 2 1 1 0
0 0 0 0 0 0 0 0 0 0 0 0 0 0 0 0 0 1 3 4 4 4 3 3 3 3 3 3 2 2 2 2 2 2 2 2 2 2 1 1 1 0 1 2 2 2 1 0 0
0 0 0 0 0 0 0 0 0 0 0 0 0 0 0 0 0 1 3 4 4 4 3 3 3 3 3 2 2 1 1 1 2 2 2 2 2 2 1 1 0 0 1 2 2 1 1 0 0
0 0 0 0 0 0 0 0 0 0 0 0 0 0 0 0 0 1 2 3 3 3 3 3 3 3 3 2 2 1 1 1 1 1 2 2 2 2 1 1 0 0 0 1 2 1 0 0 0
0 0 0 0 0 0 0 0 0 0 0 0 0 0 0 0 0 0 1 2 3 3 3 3 3 3 3 2 2 1 1 0 0 0 1 2 2 2 2 1 1 0 0 1 1 1 0 0 0
0 0 0 0 0 0 0 0 0 0 0 0 0 0 0 0 0 0 0 1 2 3 3 3 3 3 2 2 2 1 1 0 0 0 0 1 1 2 2 2 1 0 0 0 0 0 0 0 0
0 0 0 0 0 0 0 0 0 0 0 0 0 0 0 0 0 0 0 1 1 2 2 3 3 3 3 2 2 1 1 0 0 0 0 0 1 1 2 2 1 1 0 0 0 0 0 0 0
0 0 0 0 0 0 0 0 0 0 0 0 0 0 0 0 0 0 0 0 0 1 2 2 3 3 3 2 2 2 1 1 0 0 0 0 0 1 1 1 1 1 0 0 0 0 0 0 0
0 0 0 0 0 0 0 0 0 0 0 0 0 0 0 0 0 0 0 0 0 0 1 2 2 2 2 2 2 2 1 1 1 1 1 1 0 0 1 1 1 1 0 0 0 0 0 0 0
0 0 0 0 0 0 0 0 0 0 0 0 0 0 0 0 0 0 0 0 0 0 1 2 1 1 1 1 2 2 1 1 1 1 1 1 0 0 0 0 0 0 0 0 0 0 0 0 0
0 0 0 0 0 0 0 0 0 0 0 0 0 0 0 0 0 0 0 0 0 0 1 1 1 0 0 1 1 1 1 1 1 1 1 1 0 0 0 0 0 0 0 0 0 0 0 0 0
Wind_Speed
9 10 7 2 3 5 8 8 6 2 0 2 4 3 4 4 4 7 4 7 12 14 13 13 12 12 11 11 10 10 9 9 8 8 8 8 8 8 8 8 8 9 9 9 9 10 10 11 12
9 6 3 3 4 6 7 9 6 2 3 4 4 3 3 4 7 8 5 8 11 13 12 12 12 12 11 11 10 9 9 8 8 8 8 8 8 8 8 8 9 9 9 9 10 10 10 11 11
10 6 3 4 5 7 5 3 4 3 5 3 2 1 2 4 6 5 6 8 10 11 11 12 12 11 11 10 10 9 9 8 8 8 7 7 7 8 8 8 8 9 9 9 10 11 11 11 10
4 3 4 5 11 9 6 2 2 4 4 2 2 2 3 4 4 6 8 8 9 10 11 11 12 11 11 10 9 9 9 8 8 8 8 7 7 8 8 8 8 9 9 9 10 10 11 10 9
3 3 5 8 12 10 6 2 1 3 5 4 3 3 3 4 8 9 7 7 8 9 10 11 11 11 11 10 10 9 9 8 8 8 8 7 8 8 8 8 8 9 9 9 10 10 10 9 8
3 4 6 10 11 10 6 3 3 4 5 5 4 3 3 5 7 6 6 6 7 9 10 10 11 10 10 10 10 9 9 8 8 8 8 8 8 8 7 7 7 8 9 9 9 10 9 9 8
4 4 8 10 9 8 6 4 4 4 4 5 4 3 4 5 6 5 5 6 7 9 9 8 8 8 9 9 9 9 8 8 8 8 7 7 7 7 7 7 7 8 8 8 9 9 9 9 8
4 4 8 10 11 8 3 3 3 4 3 2 3 2 5 6 6 5 5 5 6 7 8 8 7 7 6 6 8 8 8 8 8 8 7 7 7 6 6 6 7 7 8 8 9 9 9 8 7
5 6 9 9 7 5 2 3 3 1 1 1 1 1 5 9 7 6 5 4 5 6 6 7 7 7 6 6 7 6 7 8 8 7 7 6 4 4 4 6 6 7 7 8 8 9 9 8 5
6 8 12 5 4 3 2 2 3 3 4 4 3 4 7 8 7 6 6 6 6 6 6 6 7 7 6 6 5 4 4 5 5 5 5 4 3 3 5 6 6 7 6 7 8 8 7 5 2
7 10 8 7 5 5 4 3 3 4 6 6 6 6 7 7 7 7 6 6 6 6 6 6 6 7 6 4 5 3 3 3 4 5 5 4 3 3 3 3 3 4 4 3 5 4 2 3 2
10 11 10 7 4 5 5 4 4 7 5 1 3 6 7 7 7 8 7 6 6 6 6 6 6 6 6 5 4 4 3 3 3 4 4 3 3 3 3 2 3 3 2 3 2 2 3 3 3
15 12 10 8 6 6 7 8 7 8 5 3 2 4 7 8 7 6 6 6 5 6 6 7 7 6 6 5 4 4 4 4 4 3 3 4 3 3 3 3 2 2 2 3 2 2 3 3 3
9 10 11 9 8 8 9 10 9 9 5 5 5 6 6 7 7 6 6 6 6 6 6 6 6 6 6 5 4 4 4 3 4 3 4 4 3 3 3 3 2 2 2 2 2 3 3 3 3
9 10 12 11 10 8 6 11 14 9 7 7 7 6 6 6 6 7 7 7 7 6 6 6 6 6 6 6 5 4 4 4 4 4 5 4 4 4 3 3 3 2 2 2 2 2 2 3 3
8 9 11 10 11 9 8 14 10 8 9 9 7 7 6 6 6 6 6 6 7 6 7 6 5 6 6 5 5 4 4 4 4 3 4 5 5 5 4 3 3 3 2 2 2 2 3 3 3
9 11 13 10 11 10 11 10 6 8 9 9 7 6 6 6 6 6 6 6 7 7 7 6 6 6 6 6 4 4 4 4 4 3 4 5 5 5 4 3 3 3 2 2 2 3 3 4 4
10 11 11 11 9 10 12 10 6 6 7 7 7 7 6 6 6 6 6 6 6 6 6 6 6 6 6 5 4 3 4 4 3 3 4 5 5 5 4 4 4 4 3 2 2 3 3 4 4
10 11 12 10 6 9 12 12 9 7 7 7 7 6 6 6 5 5 5 6 6 6 6 7 6 6 5 4 4 4 4 4 3 3 4 5 5 5 5 4 4 4 3 4 4 4 5 4 4
13 13 12 9 7 8 9 11 9 8 9 8 7 6 6 5 4 5 6 6 6 6 6 6 6 7 6 5 4 3 4 3 3 3 4 5 5 5 5 5 4 4 4 4 5 5 4 3 3
13 12 11 8 5 5 5 9 10 8 7 7 6 5 4 5 5 5 6 5 5 5 6 5 6 6 6 6 4 4 3 2 2 3 3 4 5 5 5 5 5 4 4 4 5 6 5 4 2
11 8 8 7 4 4 6 6 8 9 9 9 7 5 5 4 4 4 5 6 5 5 4 5 6 6 6 7 6 7 5 4 3 3 3 4 4 5 5 5 5 5 4 5 5 5 4 6 4
6 5 7 7 6 5 6 6 6 7 8 8 6 5 5 4 4 4 4 5 5 5 4 4 6 6 5 6 7 7 5 4 4 4 4 4 4 4 5 5 5 5 4 5 5 5 5 4 4
5 5 5 5 3 8 10 8 5 5 7 7 6 5 4 4 3 3 3 4 4 4 4 4 5 6 6 6 6 7 7 7 7 6 5 4 3 3 5 5 5 5 4 5 6 5 5 4 4
3 2 3 5 6 8 7 7 4 2 3 5 5 5 4 4 4 3 3 3 3 4 4 4 5 5 6 6 5 6 7 7 8 7 6 5 4 3 4 4 4 4 4 5 5 5 4 4 4
6 5 4 4 5 3 5 6 2 2 4 5 5 5 4 4 3 3 3 3 3 3 3 4 5 5 5 6 5 5 5 4 4 5 5 5 4 4 4 5 4 4 5 5 5 4 4 4 4
3 5 4 3 2 3 4 3 2 4 5 5 5 4 3 3 3 3 2 2 2 2 2 2 4 4 5 5 5 5 4 4 4 5 4 3 4 4 5 5 5 4 5 5 5 4 4 4 4
2 2 2 2 2 3 4 4 2 3 3 4 3 3 2 3 4 3 2 2 1 1 2 2 2 4 4 5 5 4 4 4 4 4 5 4 4 5 6 5 5 4 4 5 5 4 5 5 4
1 1 2 3 3 2 2 1 4 4 4 4 3 3 4 4 4 3 2 2 2 1 2 2 2 2 3 4 4 4 4 4 4 4 5 5 4 5 6 5 5 5 5 5 5 5 6 6 5
1 1 1 2 3 3 0 1 6 8 6 6 5 5 5 5 5 4 3 3 3 2 2 2 2 2 3 3 4 4 4 4 4 4 4 5 5 5 5 6 5 5 5 5 5 5 5 5 5
Wind_Direction
282 260 248 240 237 230 235 239 243 228 291 17 20 357 354 21 46 106 135 104 113 125 134 139 135 133 131 130 129 128 124 122 121 118 114 109 105 108 113 110 107 106 105 104 106 105 103 101 98
278 261 250 232 233 228 232 225 231 203 97 65 41 358 352 65 77 105 112 109 118 125 134 138 135 136 135 134 133 134 131 129 128 124 119 115 111 108 109 111 108 105 102 101 100 101 100 101 101
265 255 240 224 229 229 240 201 174 123 92 105 126 310 344 75 96 109 113 121 119 124 129 133 137 138 137 136 136 137 135 133 131 127 122 118 115 112 106 107 107 103 100 101 99 98 99 100 102
245 224 243 241 240 243 254 271 95 124 114 154 164 148 75 55 78 103 116 123 122 124 125 133 137 139 139 137 136 137 137 135 133 130 126 122 119 114 110 107 107 106 102 102 103 103 102 101 102
240 235 227 235 242 248 253 252 157 170 166 184 210 174 108 82 90 106 121 124 123 123 124 137 135 137 141 141 138 137 138 137 133 132 129 125 121 114 111 110 110 111 109 107 107 106 106 106 105
232 234 230 233 238 236 232 225 226 216 194 175 200 212 131 125 115 122 126 124 122 122 127 137 136 135 136 139 138 139 138 138 135 132 130 126 121 117 113 116 118 116 115 112 111 112 110 110 109
241 239 241 246 247 236 213 196 214 222 213 182 177 196 139 132 119 126 125 125 122 124 130 138 141 137 134 134 138 140 139 137 136 132 127 122 118 120 120 120 120 121 120 118 115 116 115 114 110
257 266 248 243 246 250 216 193 213 224 229 176 172 198 152 140 125 125 125 123 120 126 134 144 147 143 140 135 137 137 139 139 136 130 124 121 119 124 124 121 122 125 125 124 121 118 121 118 113
255 244 242 238 242 249 197 205 205 205 241 224 169 62 112 124 125 127 127 128 133 139 144 148 150 148 146 147 140 136 138 138 136 133 135 140 143 137 127 123 126 129 130 130 128 126 127 123 120
217 234 237 253 283 285 250 224 189 191 210 212 180 126 122 133 145 155 160 161 160 159 160 156 152 151 151 151 146 150 147 148 153 149 154 159 136 122 122 118 122 128 133 138 140 142 140 139 131
215 234 251 263 285 305 283 259 216 215 221 209 191 161 149 154 162 173 179 176 173 169 165 160 155 152 152 148 153 155 149 157 158 155 161 146 129 127 125 126 127 132 142 143 147 153 153 133 124
236 241 251 258 270 278 274 260 242 232 236 214 184 167 165 176 181 185 184 182 174 172 168 160 155 154 156 153 153 151 148 157 154 157 160 145 136 137 138 137 146 147 144 145 147 151 143 135 129
236 247 251 254 259 259 266 258 255 250 249 261 223 175 178 187 190 190 184 179 174 175 168 163 159 162 161 155 159 156 156 159 154 153 156 144 143 145 142 142 148 145 143 145 146 147 143 134 131
245 250 255 251 247 250 249 253 247 242 227 228 209 204 195 193 192 190 185 182 181 177 170 163 164 167 161 159 161 157 156 152 150 154 150 147 144 140 140 140 144 136 136 136 142 148 138 126 119
260 262 257 243 233 233 241 249 237 239 230 227 219 208 199 197 194 195 188 183 182 177 168 169 170 166 167 166 164 155 154 154 155 158 154 152 147 142 143 142 140 139 135 132 132 126 123 121 113
248 245 245 230 216 213 211 246 233 218 220 223 216 210 202 200 196 195 186 180 177 171 169 172 173 164 167 165 161 153 157 154 155 157 156 155 153 153 147 143 141 143 134 134 139 135 126 121 116
225 231 234 233 206 203 209 245 233 209 216 219 214 209 198 195 196 194 186 178 174 171 169 170 166 163 165 161 160 158 159 154 155 157 156 158 156 158 149 147 147 145 138 140 148 136 137 127 116
217 228 238 235 204 207 219 238 242 230 222 221 216 210 202 195 198 189 178 169 169 169 165 165 163 162 161 153 155 151 149 151 153 157 157 156 157 155 147 145 149 147 143 145 139 135 130 127 123
252 248 250 250 226 218 228 238 240 234 230 224 219 213 206 198 190 177 165 161 160 161 164 165 163 165 158 154 159 159 161 159 156 157 158 159 158 155 151 149 152 152 155 159 152 139 134 128 118
253 258 259 261 238 230 239 243 241 230 226 218 215 213 203 195 185 170 158 154 162 165 165 164 163 161 159 158 158 154 150 156 158 155 158 159 160 158 159 155 157 156 154 156 153 145 136 140 145
244 246 253 258 271 247 249 256 236 229 225 217 214 203 191 189 186 169 155 157 162 166 166 166 162 156 155 150 145 139 128 127 142 153 159 164 163 162 160 160 158 160 161 163 162 156 150 159 175
246 251 261 263 248 243 209 251 232 206 213 211 206 195 183 183 178 164 157 158 161 160 154 156 155 153 154 154 157 157 159 162 169 161 162 163 163 160 160 163 163 166 165 166 170 163 159 159 167
256 269 260 258 250 259 226 239 251 201 206 199 190 183 174 169 162 158 154 153 152 152 152 155 151 149 152 159 160 159 162 162 154 150 153 160 161 159 164 166 166 169 169 170 171 163 163 167 168
263 264 254 248 236 242 221 217 246 212 197 182 175 164 154 152 144 140 137 135 134 137 144 151 150 155 155 157 165 166 166 165 159 158 160 163 158 162 165 167 170 172 170 171 169 167 169 171 165
240 199 191 198 211 234 207 210 234 228 150 149 150 152 144 135 125 118 117 124 126 137 142 153 156 160 157 158 167 173 171 170 168 165 166 163 161 166 172 168 170 169 166 165 160 161 165 165 162
232 216 204 205 208 213 188 203 203 70 83 96 99 103 104 106 107 112 110 119 129 138 145 155 161 161 159 163 167 168 167 163 166 167 163 166 166 167 164 163 162 160 159 158 153 151 159 158 157
225 236 265 288 272 236 195 166 139 82 80 82 82 85 86 95 96 95 90 104 116 132 144 157 158 161 163 164 162 161 160 158 161 158 152 151 150 153 154 155 151 151 154 153 149 153 157 156 153
285 279 259 237 239 234 197 177 185 142 105 97 101 90 80 88 85 89 87 82 95 120 142 140 147 163 160 158 158 155 158 155 148 145 145 144 144 142 145 147 146 147 149 149 151 147 151 153 153
292 268 272 258 264 249 193 99 19 75 95 93 81 68 64 71 70 64 66 74 87 96 117 122 119 129 137 145 142 142 146 144 140 142 145 144 139 141 146 148 147 149 150 149 149 149 155 158 157
7 323 275 224 265 268 231 69 23 44 55 61 63 57 54 56 52 44 51 54 57 58 89 103 106 111 123 130 136 141 140 139 141 140 140 139 140 143 146 146 147 151 151 150 153 158 160 161 164